Location: Binningen
(47.7924°N, 8.7261°E)
Time: 09:10:51
(UTC+00:00)

SeaSat 1 - Pass Details

Date: 17 May 2021
Orbit: 744 x 747 km, 108.0° (Epoch: 15 June)

Event Time Altitude Azimuth Distance (km) Brightness Sun altitude
Rises 23:41:00 0° 33° (NNE) 3,201 6.7 -22.5°
Reaches altitude 10° 23:43:23 10° 40° (NE) 2,273 5.7 -22.5°
Maximum altitude 23:48:07 45° 113° (ESE) 1,008 2.9 -22.4°
Enters shadow 23:48:47 43° 136° (SE) 1,048 2.9 -22.4°
